• In Portugal
  • List of Countries
  • For 7 days
  • Water Temperature
  • Satellite Maps
  • Weather Map
  • Weather Widgets
  • user-avatar
    Login

    Hourly Weather Rio Branco

    Today, 21 September, Thursday

    Time Temperature Precipitation Wind Pressure Humidity
    00:00 +29°C° 0 mm 1 mps 744 mmHg 49%
    01:00 +29°C° 0 mm 1 mps 743 mmHg 50%
    02:00 +28°C° 0 mm 1 mps 743 mmHg 51%
    03:00 +28°C° 0 mm 1 mps 744 mmHg 53%
    04:00 +28°C° 0 mm 1 mps 744 mmHg 54%
    05:00 +29°C° 0 mm 1 mps 744 mmHg 52%
    06:00 +30°C° 0 mm 1 mps 745 mmHg 51%
    07:00 +31°C° 0 mm 1 mps 746 mmHg 49%
    08:00 +34°C° 0 mm 1 mps 746 mmHg 42%
    09:00 +37°C° 0 mm 1 mps 746 mmHg 35%
    10:00 +41°C° 0 mm 1 mps 746 mmHg 28%
    11:00 +40°C° 0 mm 1 mps 745 mmHg 29%
    12:00 +40°C° 0 mm 1 mps 745 mmHg 29%
    13:00 +37°C° 0 mm 0 mps 744 mmHg 30%
    14:00 +36°C° 0 mm 0 mps 743 mmHg 32%
    15:00 +35°C° 0 mm 0 mps 743 mmHg 34%
    16:00 +35°C° 0 mm 0 mps 742 mmHg 36%
    17:00 +34°C° 0 mm 0 mps 743 mmHg 38%
    18:00 +32°C° 0 mm 0 mps 743 mmHg 41%
    19:00 +31°C° 0 mm 0 mps 743 mmHg 43%
    20:00 +30°C° 0 mm 0 mps 744 mmHg 45%
    21:00 +29°C° 0 mm 0 mps 744 mmHg 47%
    22:00 +29°C° 0 mm 0 mps 744 mmHg 48%
    23:00 +28°C° 0 mm 0 mps 744 mmHg 50%

    Tomorrow, 22 September, Friday

    Time Temperature Precipitation Wind Pressure Humidity
    00:00 +28°C° 0 mm 0 mps 744 mmHg 51%
    01:00 +27°C° 0 mm 0 mps 744 mmHg 52%
    02:00 +27°C° 0 mm 0 mps 744 mmHg 54%
    03:00 +26°C° 0 mm 0 mps 743 mmHg 55%
    04:00 +26°C° 0 mm 0 mps 743 mmHg 57%
    05:00 +27°C° 0 mm 0 mps 744 mmHg 54%
    06:00 +29°C° 0 mm 0 mps 745 mmHg 51%
    07:00 +30°C° 0 mm 0 mps 745 mmHg 48%
    08:00 +34°C° 0 mm 0 mps 745 mmHg 40%
    09:00 +37°C° 0 mm 0 mps 746 mmHg 33%
    10:00 +41°C° 0 mm 0 mps 746 mmHg 25%
    11:00 +39°C° 0 mm 0 mps 745 mmHg 27%
    12:00 +38°C° 0 mm 0 mps 744 mmHg 28%
    13:00 +39°C° 0 mm 1 mps 742 mmHg 30%
    14:00 +36°C° 0 mm 0 mps 742 mmHg 30%
    15:00 +36°C° 0 mm 0 mps 742 mmHg 31%
    16:00 +36°C° 0 mm 0 mps 741 mmHg 31%
    17:00 +34°C° 0 mm 0 mps 742 mmHg 35%
    18:00 +33°C° 0 mm 0 mps 742 mmHg 38%
    19:00 +31°C° 0 mm 0 mps 743 mmHg 42%
    20:00 +30°C° 0.1 mm 0 mps 743 mmHg 44%
    21:00 +32°C° 0.1 mm 1 mps 743 mmHg 46%
    22:00 +32°C° 0.1 mm 1 mps 744 mmHg 48%
    23:00 +31°C° 0 mm 1 mps 744 mmHg 48%

    Day after tomorrow, 23 September, Saturday

    Time Temperature Precipitation Wind Pressure Humidity
    00:00 +31°C° 0 mm 1 mps 743 mmHg 49%
    01:00 +31°C° 0 mm 1 mps 743 mmHg 49%
    02:00 +30°C° 0 mm 1 mps 743 mmHg 51%
    03:00 +29°C° 0 mm 1 mps 743 mmHg 54%
    04:00 +27°C° 0 mm 0 mps 743 mmHg 56%
    05:00 +28°C° 0 mm 0 mps 744 mmHg 54%
    06:00 +29°C° 0 mm 0 mps 745 mmHg 52%
    07:00 +30°C° 0 mm 0 mps 745 mmHg 49%
    08:00 +35°C° 0 mm 1 mps 745 mmHg 42%
    09:00 +37°C° 0 mm 1 mps 745 mmHg 35%
    10:00 +41°C° 0 mm 1 mps 745 mmHg 27%
    11:00 +41°C° 0 mm 1 mps 744 mmHg 27%
    12:00 +41°C° 0 mm 1 mps 743 mmHg 26%
    13:00 +41°C° 0 mm 1 mps 742 mmHg 26%
    14:00 +40°C° 0 mm 1 mps 742 mmHg 27%
    15:00 +40°C° 0 mm 1 mps 741 mmHg 28%
    16:00 +40°C° 0 mm 1 mps 741 mmHg 29%
    17:00 +35°C° 0 mm 0 mps 742 mmHg 32%
    18:00 +33°C° 0 mm 0 mps 742 mmHg 35%
    19:00 +32°C° 0 mm 0 mps 743 mmHg 38%
    20:00 +31°C° 0 mm 0 mps 743 mmHg 39%
    21:00 +31°C° 0 mm 0 mps 743 mmHg 40%
    22:00 +33°C° 0 mm 1 mps 744 mmHg 41%
    23:00 +32°C° 0 mm 1 mps 743 mmHg 43%

    24 September, Sunday

    Time Temperature Precipitation Wind Pressure Humidity
    00:00 +30°C° 0 mm 0 mps 743 mmHg 45%
    01:00 +29°C° 0 mm 0 mps 743 mmHg 47%
    02:00 +29°C° 0 mm 0 mps 743 mmHg 49%
    03:00 +28°C° 0 mm 0 mps 743 mmHg 50%
    04:00 +28°C° 0 mm 0 mps 743 mmHg 52%
    05:00 +28°C° 0.1 mm 0 mps 744 mmHg 54%
    06:00 +28°C° 0.1 mm 0 mps 745 mmHg 56%
    07:00 +28°C° 0.1 mm 0 mps 746 mmHg 58%
    08:00 +29°C° 0 mm 0 mps 746 mmHg 55%
    09:00 +32°C° 0 mm 1 mps 746 mmHg 52%
    10:00 +34°C° 0 mm 1 mps 746 mmHg 49%
    11:00 +34°C° 0 mm 1 mps 745 mmHg 47%
    12:00 +35°C° 0 mm 1 mps 744 mmHg 45%
    13:00 +36°C° 0 mm 1 mps 743 mmHg 43%
    14:00 +36°C° 0 mm 1 mps 743 mmHg 41%
    15:00 +36°C° 0 mm 1 mps 742 mmHg 40%
    16:00 +36°C° 0 mm 1 mps 742 mmHg 39%
    17:00 +35°C° 0 mm 1 mps 742 mmHg 44%
    18:00 +33°C° 0 mm 1 mps 743 mmHg 49%
    19:00 +31°C° 0 mm 1 mps 743 mmHg 55%
    20:00 +30°C° 0 mm 1 mps 744 mmHg 58%
    21:00 +30°C° 0 mm 1 mps 744 mmHg 60%
    22:00 +29°C° 0 mm 1 mps 745 mmHg 63%
    23:00 +28°C° 0 mm 1 mps 745 mmHg 67%

    25 September, Monday

    Time Temperature Precipitation Wind Pressure Humidity
    00:00 +28°C° 0 mm 1 mps 744 mmHg 71%
    01:00 +27°C° 0 mm 1 mps 744 mmHg 75%
    02:00 +27°C° 0 mm 1 mps 744 mmHg 78%
    03:00 +26°C° 0 mm 1 mps 745 mmHg 81%
    04:00 +26°C° 0 mm 1 mps 745 mmHg 84%
    05:00 +27°C° 0 mm 1 mps 745 mmHg 81%
    06:00 +28°C° 0 mm 1 mps 746 mmHg 78%
    07:00 +28°C° 0 mm 1 mps 747 mmHg 75%
    08:00 +31°C° 0 mm 1 mps 747 mmHg 65%
    09:00 +34°C° 0 mm 1 mps 747 mmHg 54%
    10:00 +37°C° 0 mm 1 mps 747 mmHg 43%
    11:00 +39°C° 0 mm 1 mps 746 mmHg 39%
    12:00 +40°C° 0 mm 1 mps 744 mmHg 35%
    13:00 +41°C° 0 mm 1 mps 743 mmHg 32%
    14:00 +40°C° 0 mm 1 mps 743 mmHg 35%
    15:00 +37°C° 0 mm 1 mps 742 mmHg 39%
    16:00 +36°C° 0 mm 1 mps 742 mmHg 43%
    17:00 +34°C° 0 mm 1 mps 742 mmHg 46%
    18:00 +33°C° 0 mm 1 mps 743 mmHg 50%
    19:00 +32°C° 0 mm 1 mps 743 mmHg 53%
    20:00 +31°C° 0 mm 1 mps 743 mmHg 56%
    21:00 +30°C° 0 mm 1 mps 743 mmHg 59%
    22:00 +30°C° 0 mm 1 mps 744 mmHg 62%
    23:00 +29°C° 0 mm 1 mps 743 mmHg 65%

    26 September, Tuesday

    Time Temperature Precipitation Wind Pressure Humidity
    00:00 +29°C° 0 mm 1 mps 743 mmHg 68%
    01:00 +28°C° 0 mm 1 mps 743 mmHg 71%
    02:00 +28°C° 0.6 mm 1 mps 743 mmHg 75%
    03:00 +27°C° 0.6 mm 1 mps 744 mmHg 79%
    04:00 +26°C° 0.6 mm 1 mps 744 mmHg 83%
    05:00 +26°C° 0.9 mm 1 mps 745 mmHg 85%
    06:00 +27°C° 0.9 mm 1 mps 745 mmHg 86%
    07:00 +27°C° 0.9 mm 1 mps 746 mmHg 88%
    08:00 +28°C° 2.1 mm 1 mps 746 mmHg 86%
    09:00 +29°C° 2.1 mm 1 mps 746 mmHg 83%
    10:00 +30°C° 2.1 mm 1 mps 746 mmHg 81%
    11:00 +29°C° 1.3 mm 1 mps 745 mmHg 84%
    12:00 +28°C° 1.3 mm 1 mps 744 mmHg 87%
    13:00 +27°C° 1.3 mm 1 mps 744 mmHg 90%
    14:00 +27°C° 0.1 mm 1 mps 743 mmHg 89%
    15:00 +25°C° 0.1 mm 0 mps 742 mmHg 87%
    16:00 +26°C° 0.1 mm 0 mps 742 mmHg 86%
    17:00 +25°C° 0 mm 0 mps 742 mmHg 87%
    18:00 +24°C° 0 mm 0 mps 742 mmHg 88%
    19:00 +23°C° 0 mm 0 mps 742 mmHg 90%
    20:00 +23°C° 0 mm 0 mps 743 mmHg 90%
    21:00 +23°C° 0 mm 0 mps 743 mmHg 90%
    22:00 +23°C° 0 mm 0 mps 743 mmHg 90%
    23:00 +23°C° 0 mm 0 mps 743 mmHg 91%
    Show more